This is the latest recevied weather packets stored in our database for station/object W5HKR. If no packets are shown the sender has not sent any weather packets the latest 10 day(s).
| Time | Temp. | Humidity | Pressure | Rain* | Wind** | Luminosity | Snow |
|---|---|---|---|---|---|---|---|
| 1777222111 | 26.67° C | 80% | 981.4 hPa | 0 mm | - | - | - |
| 1777222003 | 26.67° C | 80% | 981 hPa | 0 mm | - | - | - |
| 1777221810 | 26.67° C | 79% | 981.2 hPa | 0 mm | - | - | - |
| 1777221510 | 26.67° C | 81% | 981.1 hPa | 0 mm | - | - | - |
| 1777221211 | 26.11° C | 82% | 981.4 hPa | 0 mm | - | - | - |
| 1777220910 | 18.33° C | 91% | 990.6 hPa | 0 mm | - | - | - |
| 1777220611 | 18.33° C | 91% | 990.6 hPa | 0 mm | - | - | - |
| 1777220312 | 25.56° C | 83% | 980.8 hPa | 0 mm | - | - | - |
| 1777220010 | 26.11° C | 83% | 981.2 hPa | 0 mm | - | - | - |
| 1777219843 | 26.11° C | 83% | 981.2 hPa | 0 mm | - | - | - |
| 1777219711 | 18.33° C | 91% | 990.6 hPa | 0 mm | - | - | - |
| 1777219410 | 26.11° C | 83% | 981.1 hPa | 0 mm | - | - | - |
| 1777219111 | 18.33° C | 91% | 990.6 hPa | 0 mm | - | - | - |
| 1777218811 | 18.33° C | 91% | 990.6 hPa | 0 mm | - | - | - |
| 1777218762 | 26.11° C | 82% | 981.2 hPa | 0 mm | - | - | - |
| 1777218512 | 18.33° C | 91% | 990.6 hPa | 0 mm | - | - | - |
| 1777217911 | 25.56° C | 86% | 981.1 hPa | 0 mm | - | - | - |
| 1777217682 | 25° C | 87% | 980.7 hPa | 0 mm | - | - | - |
| 1777217310 | 25° C | 86% | 981 hPa | 0 mm | - | - | - |
| 1777217010 | 25° C | 87% | 981.2 hPa | 0 mm | - | - | - |
| 1777216710 | 25° C | 87% | 980.8 hPa | 0 mm | - | - | - |
| 1777216602 | 18.33° C | 91% | 990.6 hPa | 0 mm | - | - | - |
| 1777216112 | 24.44° C | 88% | 981.2 hPa | 0 mm | - | - | - |
| 1777215811 | 18.33° C | 91% | 990.6 hPa | 0 mm | - | - | - |
| 1777215510 | 18.33° C | 91% | 990.6 hPa | 0 mm | - | - | - |
* Rain latest hour (hover to see other rain measurements)
** Current wind speed in m/s (hover to see current wind gust speed)